SCP
0 0 0 0 0 -0 -0 -0 -0 -0 -0 -0 -0 -0 -0 -0 0 0 -0 0 0 0 0 0 0 0 0 0 0 0 0 0 0 -0 -0 -0 0 0 0 0 -0 -0 -0 0 0
0 0 0 0 0 -0 -0 -0 -0 -0 -0 -0 -0 -0 -0 -0 0 0 0 -0 0 0 0 0 0 0 0 0 0 -0 -0 -0 -0 0 0 0 0 0 0 0 0 0 0 0 0
0 0 0 0 0 0 -0 -0 -0 -0 -0 -0 -0 -0 -0 0 -0 0 -0 -0 0 0 0 0 0 0 0 0 0 0 0 0 0 0 0 0 0 0 0 0 0 0 0 0 0
0 0 0 0 0 0 0 -0 -0 -0 -0 -0 -0 -0 -0 -0 -0 0 -0 -0 0 0 0 0 0 0 0 0 0 0 0 0 0 0 0 0 0 0 0 0 0 -0 0 -0 0
0 0 0 0 0 0 0 0 -0 -0 -0 -0 -0 -0 -0 -0 0 -0 -0 -0 0 0 0 0 0 0 0 0 0 0 0 0 0 0 0 0 0 0 0 0 0 0 0 -0 -0
0 0 0 0 0 0 0 0 0 -0 -0 -0 -0 -0 0 -0 -0 -0 -0 -0 0 0 0 0 0 0 0 0 0 0 0 0 0 0 0 0 0 0 0 0 0 0 0 0 -0
0 0 0 0 0 0 0 0 0 0 -0 -0 -0 0 0 -0 0 -0 -0 -0 0 0 0 0 0 -0 0 0 0 0 0 0 0 0 0 0 0 0 0 0 0 0 0 0 0
0 0 0 0 0 0 0 0 0 0 0 -0 -0 0 0 0 0 0 -0 -0 -0 0 0 0 0 -0 0 0 0 0 0 0 0 0 0 0 0 0 0 0 0 0 0 0 0
0 0 0 0 0 0 0 0 0 0 0 -0 0 0 0 0 0 0 0 0 -0 0 0 0 -0 -0 0 0 0 0 0 0 0 0 0 0 0 0 0 0 0 0 0 0 -0
0 0 0 0 0 0 0 0 0 0 0 0 0 0 0 0 0 0 0 0 0 0 0 -0 -0 -0 0 0 0 0 0 0 0 0 0 0 0 0 0 0 0 0 0 -0 -0
0 0 0 0 0 0 0 0 0 0 0 0 0 0 0 0 0 0 0 0 0 0 0 0 0 0 0 0 0 0 0 0 0 0 0 0 0 0 0 0 0 0 0 0 0
0 0 0 0 0 0 0 0 0 0 0 0 0 0 0 0 0 0 0 0 0 0 0 0 0 0 0 0 0 0 0 0 0 0 0 0 0 0 0 0 0 0 0 0 0
0 0 0 0 0 0 0 0 0 0 0 0 0 0 0 0 0 0 0 0 0 0 0 0 0 0 0 0 0 0 0 0 0 0 0 0 0 0 0 0 0 0 0 0 0
0 0 0 0 0 0 0 0 0 0 0 0 0 0 0 0 0 0 0 0 0 0 0 0 0 0 0 0 0 0 0 0 0 0 0 0 0 0 0 0 0 0 0 0 0
0 0 0 0 0 0 0 0 0 0 0 0 0 0 0 0 0 0 0 0 0 0 0 0 0 0 0 0 0 0 0 0 0 0 0 0 0 0 0 0 0 0 0 0 0
0 0 0 0 0 0 0 0 0 0 0 0 0 0 0 0 0 0 0 0 0 0 0 0 0 0 0 0 0 0 0 0 0 0 0 0 0 0 0 0 0 0 0 0 0
0 0 0 0 0 0 0 0 0 0 0 0 0 0 0 0 0 0 0 0 0 0 0 0 0 0 0 0 0 0 0 0 0 0 0 0 0 0 0 0 0 0 0 0 0
0 0 0 0 0 0 0 0 0 0 0 0 0 0 0 0 0 0 0 0 0 0 0 0 0 0 0 0 0 0 0 0 0 0 0 0 0 0 0 0 0 0 0 0 0
0 0 0 0 0 0 0 0 0 0 0 0 0 0 0 0 0 0 0 0 0 0 0 0 0 0 0 0 0 0 0 0 0 0 0 0 0 0 0 0 0 0 0 0 0
0 0 0 0 0 0 0 0 0 0 0 0 0 0 0 0 0 0 0 0 0 0 0 0 0 0 0 0 0 0 0 0 0 0 0 0 0 0 0 0 0 0 0 0 0
0 0 0 0 0 0 0 0 0 0 0 0 0 0 0 0 0 0 0 0 0 0 0 0 0 0 0 0 0 0 0 0 0 0 0 0 0 0 0 0 0 0 0 0 0
0 0 0 0 0 0 0 0 0 0 0 0 0 0 0 0 0 0 0 0 0 0 0 0 0 0 0 0 0 0 0 0 0 0 0 0 0 0 0 0 0 0 0 0 0
0 0 0 0 0 0 0 0 0 0 0 0 0 0 0 0 0 0 0 0 0 0 0 0 0 0 0 0 0 0 0 0 0 0 0 0 0 0 0 0 0 0 0 0 0
0 0 0 0 0 0 0 0 0 0 0 0 0 0 0 0 0 0 0 0 0 0 0 0 0 0 0 0 0 0 0 0 0 0 0 0 0 0 0 0 0 0 0 0 0
0 0 0 0 0 0 0 0 0 0 0 0 0 0 0 0 0 0 0 0 0 0 0 0 0 0 0 0 0 0 0 0 0 0 0 0 0 0 0 0 0 0 0 0 0
0 0 0 0 0 0 0 0 0 0 0 0 0 0 0 0 0 0 0 0 0 0 0 0 0 0 0 0 0 0 0 0 0 0 0 0 0 0 0 0 0 0 0 0 0
0 0 0 0 0 0 0 0 0 0 0 0 0 0 0 0 0 0 0 0 0 0 0 0 0 0 0 0 0 0 0 0 0 0 0 0 0 0 0 0 0 0 0 0 0
Wind_Speed_500mb
3 6 7 9 12 15 17 20 23 24 22 20 16 9 10 21 34 21 34 35 31 22 12 23 26 23 17 16 19 9 9 5 4 5 8 16 10 21 26 28 37 31 26 38 42
6 6 8 11 12 14 17 18 21 23 21 17 14 7 9 12 20 40 33 23 19 19 13 25 30 24 13 16 16 16 9 7 9 7 7 13 23 12 13 41 24 44 42 41 46
6 8 9 11 13 14 16 18 20 21 17 12 13 7 5 5 8 25 27 19 13 11 18 22 24 15 20 19 18 11 8 7 18 17 19 8 30 28 15 12 25 33 39 44 50
8 9 10 11 13 14 17 17 19 19 15 10 6 12 10 3 3 15 22 18 11 11 21 19 9 8 12 11 9 14 22 15 8 10 5 5 8 27 34 16 26 31 31 43 49
10 11 11 11 13 13 16 16 16 14 16 12 5 7 7 11 11 14 19 22 14 15 21 29 27 16 12 15 30 19 12 15 10 9 17 16 13 16 30 29 29 32 37 44 50
13 13 11 12 12 12 13 14 13 7 10 18 10 5 7 9 7 12 15 21 24 15 15 10 26 33 29 13 14 21 28 18 9 3 11 7 7 6 23 29 36 39 43 48 49
13 15 12 12 11 10 12 12 11 9 6 8 3 7 8 8 6 8 10 22 27 26 30 29 20 8 16 15 33 36 11 10 18 3 6 12 12 6 19 33 39 39 44 47 47
15 14 13 12 11 8 9 10 9 8 5 0 5 3 8 8 8 6 8 18 27 27 28 24 28 34 14 32 9 6 8 6 6 13 3 8 3 2 21 38 41 43 47 44 56
17 14 13 12 10 7 6 6 5 6 5 3 4 6 4 3 3 8 9 13 22 27 30 29 29 19 11 10 8 5 1 7 4 10 4 6 3 4 23 37 37 44 42 50 73
14 14 12 10 9 6 2 3 7 5 3 8 9 4 3 6 7 7 9 9 14 13 14 11 13 9 10 10 7 5 7 4 6 5 8 7 6 6 24 37 36 46 43 66 75
12 14 11 8 6 5 3 3 1 3 8 6 4 7 3 7 13 8 10 13 12 8 7 13 14 7 3 7 6 3 9 8 6 4 4 6 10 7 21 42 46 46 52 68 73
13 11 10 9 6 3 1 4 2 3 4 7 9 5 6 7 2 8 5 8 6 7 6 14 8 5 4 9 9 11 6 4 3 6 4 9 13 9 17 27 41 40 58 62 80
15 11 11 10 5 3 2 2 2 3 3 2 4 2 4 2 6 8 6 9 13 10 9 10 7 5 2 9 6 7 6 3 2 10 6 4 13 9 6 39 45 47 60 69 76
23 17 12 9 6 6 4 7 9 1 8 2 2 2 2 8 8 8 11 7 10 10 10 11 3 3 10 7 5 4 3 3 4 4 2 7 6 1 6 15 26 45 62 62 67
26 25 22 17 6 10 6 11 9 0 5 5 2 1 8 6 9 9 10 8 9 7 8 9 6 1 4 5 4 2 3 2 3 2 7 2 7 7 8 13 14 36 46 59 64
29 27 27 24 16 12 13 12 3 11 11 1 2 4 5 2 4 6 5 10 12 10 14 6 3 5 2 4 4 2 2 4 4 2 4 7 9 9 4 4 8 31 47 55 61
33 32 31 30 23 20 13 6 9 7 4 3 5 6 3 4 3 1 4 5 7 10 1 3 2 1 3 5 0 3 6 5 8 6 6 8 6 8 8 7 11 23 37 50 58
39 35 33 32 28 20 30 8 7 5 6 5 5 9 6 4 4 2 6 1 6 2 7 11 5 10 5 4 7 10 9 8 10 5 4 5 7 6 12 22 21 28 38 53 62
52 41 32 31 33 37 41 4 15 11 9 14 5 7 5 3 7 6 10 6 12 15 9 8 1 2 5 4 2 5 4 4 9 4 4 5 6 6 10 14 21 31 43 50 54
65 48 41 36 37 36 6 11 8 4 12 3 9 4 9 7 5 6 8 6 8 2 3 6 8 1 2 2 3 3 2 7 4 2 6 7 7 8 6 7 11 28 37 42 46
63 31 35 41 38 25 7 12 6 10 10 10 9 10 7 11 10 7 10 4 5 5 3 3 7 2 5 10 11 3 3 4 4 7 7 3 9 10 10 6 8 13 25 33 39
55 9 49 50 12 9 7 11 13 9 6 4 5 2 12 13 10 5 12 3 12 15 11 2 8 6 11 5 1 2 8 10 7 8 5 3 9 11 14 17 14 13 21 27 33
51 17 54 55 10 6 2 1 9 9 9 9 10 5 3 10 9 10 7 5 6 6 8 5 1 5 7 6 4 8 9 6 9 4 10 10 7 12 25 20 16 15 17 23 29
34 10 16 31 13 15 11 8 8 10 11 11 8 8 9 7 3 10 6 3 2 3 4 5 2 7 9 5 8 9 11 13 10 6 7 10 8 13 14 14 18 15 15 19 27
28 12 28 15 22 11 20 21 17 14 5 17 3 10 15 8 7 5 6 4 2 2 2 6 8 2 2 2 2 6 9 19 22 10 12 5 14 18 21 20 28 22 17 18 26
36 19 22 16 29 34 30 20 27 12 22 12 10 16 11 13 13 18 16 8 9 6 9 2 3 4 5 5 3 8 14 19 26 21 18 10 10 13 35 35 33 27 22 20 23
32 34 40 29 19 29 18 18 29 29 25 22 27 14 7 10 13 14 14 26 20 16 11 10 10 5 8 6 5 14 30 34 20 14 28 23 14 27 15 32 37 33 28 26 25
Wind_Direction_500mb
304 326 341 338 343 352 355 356 355 357 6 13 19 64 49 42 54 56 48 20 15 32 75 87 81 67 66 46 29 6 62 87 99 97 135 31 47 32 74 65 44 34 15 354 352
312 320 326 327 340 345 347 353 353 352 4 18 23 60 104 47 48 44 34 20 17 33 83 92 80 64 63 29 31 52 74 43 16 36 52 48 57 36 55 36 8 7 11 7 1
310 314 317 325 331 339 341 347 349 350 10 26 36 47 121 48 43 21 30 24 29 67 86 88 81 78 62 50 18 38 111 89 35 42 23 33 67 61 35 33 357 345 7 3 8
301 301 309 317 323 331 332 344 347 352 13 36 55 66 72 22 117 14 37 30 35 93 97 87 77 74 72 49 48 97 66 90 109 60 24 14 49 58 54 15 4 16 17 13 11
291 289 298 302 315 328 328 339 347 12 31 43 49 123 71 63 56 38 39 42 45 108 114 93 77 80 101 100 65 76 92 75 110 61 42 87 68 83 38 17 25 20 16 15 4
288 282 286 298 310 324 325 334 337 5 40 47 43 109 112 76 70 39 48 46 54 82 122 95 85 95 74 64 75 117 113 103 100 59 34 36 41 63 15 21 29 26 26 16 10
282 279 283 291 305 323 324 330 329 325 305 17 63 46 100 116 77 40 45 52 62 72 96 101 100 122 103 83 112 123 89 68 33 341 348 357 28 69 22 33 25 26 22 14 6
286 278 283 292 303 322 325 327 329 340 331 243 67 57 88 98 74 45 63 75 80 75 82 98 106 86 80 114 104 73 73 64 353 44 345 56 224 100 51 42 22 25 15 12 356
297 286 284 289 297 316 328 333 354 25 41 115 133 101 63 70 41 61 66 99 90 86 90 94 83 86 94 91 45 30 134 124 137 27 329 161 151 164 59 44 30 20 13 359 355
304 291 284 288 293 305 339 74 58 41 79 111 114 106 109 318 21 59 73 109 97 98 81 65 69 70 29 55 168 211 173 124 133 308 15 319 197 122 64 50 39 18 6 0 358
281 304 288 277 278 293 263 315 358 1 34 79 67 105 144 113 56 43 91 101 77 62 85 39 69 91 7 340 282 192 111 114 142 128 62 251 276 199 56 44 32 18 5 0 356
246 260 276 272 258 270 31 69 77 128 63 67 92 107 127 96 62 35 70 65 35 84 45 27 102 155 309 313 39 30 93 38 284 145 129 302 287 266 58 46 33 21 6 3 358
234 252 249 240 232 233 158 131 136 128 121 106 143 110 103 105 61 17 74 74 72 48 27 112 155 155 236 43 72 27 113 99 236 315 253 293 315 125 86 39 26 20 7 5 3
229 227 212 212 189 190 136 158 153 197 71 230 101 29 101 136 48 55 85 85 52 121 84 85 281 184 89 83 11 195 26 34 298 49 169 100 265 74 347 23 21 14 11 3 4
225 221 204 196 168 159 149 151 148 10 355 52 107 124 110 93 132 37 75 76 112 91 108 209 151 167 120 131 19 205 35 312 284 332 55 273 79 261 9 357 1 6 7 5 7
216 209 198 186 151 126 124 135 101 44 256 162 71 143 114 95 57 91 75 82 117 74 34 118 85 70 99 116 77 100 345 291 323 104 34 220 127 295 355 289 340 5 10 6 12
209 198 194 186 161 128 111 93 45 147 332 258 156 154 166 116 56 180 122 108 145 96 36 9 85 149 157 125 338 104 81 350 354 6 222 176 48 244 98 58 52 14 8 10 16
200 198 190 187 170 159 192 56 184 230 186 224 146 147 154 141 356 47 113 41 257 191 120 152 279 178 188 215 165 181 146 158 212 217 256 330 236 193 130 73 41 24 23 21 21
192 186 189 184 173 165 166 124 201 201 149 150 74 122 148 130 125 77 201 225 208 188 146 132 62 94 61 355 127 179 165 151 106 11 40 216 77 157 85 45 27 22 29 27 23
186 179 183 185 169 167 116 247 183 145 132 119 158 141 163 183 123 121 196 255 186 140 7 172 91 10 203 343 282 198 148 80 9 114 274 280 212 197 27 5 13 16 30 29 30
180 149 180 180 162 165 201 223 181 171 156 158 176 140 155 170 150 191 212 292 139 152 65 177 108 203 80 204 180 164 184 166 136 168 186 263 254 174 154 135 83 30 42 39 40
158 140 166 165 120 195 185 193 159 160 163 144 108 99 160 172 139 243 213 172 164 158 173 195 118 162 209 159 177 240 207 162 140 211 220 128 272 150 139 132 108 69 56 51 51
145 115 167 175 172 216 261 339 171 143 197 162 169 191 61 179 124 184 132 359 167 149 162 178 213 72 344 356 347 227 204 199 117 80 206 147 248 187 135 119 113 99 75 65 63
142 135 145 192 225 149 140 205 185 200 170 170 151 133 111 205 75 148 130 342 30 72 94 99 166 193 195 135 126 207 201 187 147 157 196 222 164 181 172 151 135 121 103 84 75
157 180 169 175 213 178 176 169 155 181 225 185 346 200 160 161 77 187 139 121 308 191 58 102 180 246 138 57 8 236 203 193 204 195 185 238 185 181 182 167 157 146 137 112 94
148 147 166 170 158 177 184 195 180 164 161 211 189 182 179 156 169 187 147 182 197 170 160 82 234 92 290 316 300 270 250 214 220 233 262 221 251 175 166 157 149 156 156 135 113
177 162 156 157 144 175 197 178 186 152 209 201 170 124 156 204 173 235 138 168 172 157 165 148 136 112 264 351 352 296 223 207 201 203 213 212 199 154 159 167 163 165 171 155 140
Wind_Speed_850mb
3 6 7 9 12 15 17 20 23 24 22 20 16 9 10 21 34 21 34 35 31 22 12 23 26 23 17 16 19 9 9 5 4 5 8 16 10 21 26 28 37 31 26 38 42
6 6 8 11 12 14 17 18 21 23 21 17 14 7 9 12 20 40 33 23 19 19 13 25 30 24 13 16 16 16 9 7 9 7 7 13 23 12 13 41 24 44 42 41 46
6 8 9 11 13 14 16 18 20 21 17 12 13 7 5 5 8 25 27 19 13 11 18 22 24 15 20 19 18 11 8 7 18 17 19 8 30 28 15 12 25 33 39 44 50
8 9 10 11 13 14 17 17 19 19 15 10 6 12 10 3 3 15 22 18 11 11 21 19 9 8 12 11 9 14 22 15 8 10 5 5 8 27 34 16 26 31 31 43 49
10 11 11 11 13 13 16 16 16 14 16 12 5 7 7 11 11 14 19 22 14 15 21 29 27 16 12 15 30 19 12 15 10 9 17 16 13 16 30 29 29 32 37 44 50
13 13 11 12 12 12 13 14 13 7 10 18 10 5 7 9 7 12 15 21 24 15 15 10 26 33 29 13 14 21 28 18 9 3 11 7 7 6 23 29 36 39 43 48 49
13 15 12 12 11 10 12 12 11 9 6 8 3 7 8 8 6 8 10 22 27 26 30 29 20 8 16 15 33 36 11 10 18 3 6 12 12 6 19 33 39 39 44 47 47
15 14 13 12 11 8 9 10 9 8 5 0 5 3 8 8 8 6 8 18 27 27 28 24 28 34 14 32 9 6 8 6 6 13 3 8 3 2 21 38 41 43 47 44 56
17 14 13 12 10 7 6 6 5 6 5 3 4 6 4 3 3 8 9 13 22 27 30 29 29 19 11 10 8 5 1 7 4 10 4 6 3 4 23 37 37 44 42 50 73
14 14 12 10 9 6 2 3 7 5 3 8 9 4 3 6 7 7 9 9 14 13 14 11 13 9 10 10 7 5 7 4 6 5 8 7 6 6 24 37 36 46 43 66 75
12 14 11 8 6 5 3 3 1 3 8 6 4 7 3 7 13 8 10 13 12 8 7 13 14 7 3 7 6 3 9 8 6 4 4 6 10 7 21 42 46 46 52 68 73
13 11 10 9 6 3 1 4 2 3 4 7 9 5 6 7 2 8 5 8 6 7 6 14 8 5 4 9 9 11 6 4 3 6 4 9 13 9 17 27 41 40 58 62 80
15 11 11 10 5 3 2 2 2 3 3 2 4 2 4 2 6 8 6 9 13 10 9 10 7 5 2 9 6 7 6 3 2 10 6 4 13 9 6 39 45 47 60 69 76
23 17 12 9 6 6 4 7 9 1 8 2 2 2 2 8 8 8 11 7 10 10 10 11 3 3 10 7 5 4 3 3 4 4 2 7 6 1 6 15 26 45 62 62 67
26 25 22 17 6 10 6 11 9 0 5 5 2 1 8 6 9 9 10 8 9 7 8 9 6 1 4 5 4 2 3 2 3 2 7 2 7 7 8 13 14 36 46 59 64
29 27 27 24 16 12 13 12 3 11 11 1 2 4 5 2 4 6 5 10 12 10 14 6 3 5 2 4 4 2 2 4 4 2 4 7 9 9 4 4 8 31 47 55 61
33 32 31 30 23 20 13 6 9 7 4 3 5 6 3 4 3 1 4 5 7 10 1 3 2 1 3 5 0 3 6 5 8 6 6 8 6 8 8 7 11 23 37 50 58
39 35 33 32 28 20 30 8 7 5 6 5 5 9 6 4 4 2 6 1 6 2 7 11 5 10 5 4 7 10 9 8 10 5 4 5 7 6 12 22 21 28 38 53 62
52 41 32 31 33 37 41 4 15 11 9 14 5 7 5 3 7 6 10 6 12 15 9 8 1 2 5 4 2 5 4 4 9 4 4 5 6 6 10 14 21 31 43 50 54
65 48 41 36 37 36 6 11 8 4 12 3 9 4 9 7 5 6 8 6 8 2 3 6 8 1 2 2 3 3 2 7 4 2 6 7 7 8 6 7 11 28 37 42 46
63 31 35 41 38 25 7 12 6 10 10 10 9 10 7 11 10 7 10 4 5 5 3 3 7 2 5 10 11 3 3 4 4 7 7 3 9 10 10 6 8 13 25 33 39
55 9 49 50 12 9 7 11 13 9 6 4 5 2 12 13 10 5 12 3 12 15 11 2 8 6 11 5 1 2 8 10 7 8 5 3 9 11 14 17 14 13 21 27 33
51 17 54 55 10 6 2 1 9 9 9 9 10 5 3 10 9 10 7 5 6 6 8 5 1 5 7 6 4 8 9 6 9 4 10 10 7 12 25 20 16 15 17 23 29
34 10 16 31 13 15 11 8 8 10 11 11 8 8 9 7 3 10 6 3 2 3 4 5 2 7 9 5 8 9 11 13 10 6 7 10 8 13 14 14 18 15 15 19 27
28 12 28 15 22 11 20 21 17 14 5 17 3 10 15 8 7 5 6 4 2 2 2 6 8 2 2 2 2 6 9 19 22 10 12 5 14 18 21 20 28 22 17 18 26
36 19 22 16 29 34 30 20 27 12 22 12 10 16 11 13 13 18 16 8 9 6 9 2 3 4 5 5 3 8 14 19 26 21 18 10 10 13 35 35 33 27 22 20 23
32 34 40 29 19 29 18 18 29 29 25 22 27 14 7 10 13 14 14 26 20 16 11 10 10 5 8 6 5 14 30 34 20 14 28 23 14 27 15 32 37 33 28 26 25
Wind_Direction_850mb
304 326 341 338 343 352 355 356 355 357 6 13 19 64 49 42 54 56 48 20 15 32 75 87 81 67 66 46 29 6 62 87 99 97 135 31 47 32 74 65 44 34 15 354 352
312 320 326 327 340 345 347 353 353 352 4 18 23 60 104 47 48 44 34 20 17 33 83 92 80 64 63 29 31 52 74 43 16 36 52 48 57 36 55 36 8 7 11 7 1
310 314 317 325 331 339 341 347 349 350 10 26 36 47 121 48 43 21 30 24 29 67 86 88 81 78 62 50 18 38 111 89 35 42 23 33 67 61 35 33 357 345 7 3 8
301 301 309 317 323 331 332 344 347 352 13 36 55 66 72 22 117 14 37 30 35 93 97 87 77 74 72 49 48 97 66 90 109 60 24 14 49 58 54 15 4 16 17 13 11
291 289 298 302 315 328 328 339 347 12 31 43 49 123 71 63 56 38 39 42 45 108 114 93 77 80 101 100 65 76 92 75 110 61 42 87 68 83 38 17 25 20 16 15 4
288 282 286 298 310 324 325 334 337 5 40 47 43 109 112 76 70 39 48 46 54 82 122 95 85 95 74 64 75 117 113 103 100 59 34 36 41 63 15 21 29 26 26 16 10
282 279 283 291 305 323 324 330 329 325 305 17 63 46 100 116 77 40 45 52 62 72 96 101 100 122 103 83 112 123 89 68 33 341 348 357 28 69 22 33 25 26 22 14 6
286 278 283 292 303 322 325 327 329 340 331 243 67 57 88 98 74 45 63 75 80 75 82 98 106 86 80 114 104 73 73 64 353 44 345 56 224 100 51 42 22 25 15 12 356
297 286 284 289 297 316 328 333 354 25 41 115 133 101 63 70 41 61 66 99 90 86 90 94 83 86 94 91 45 30 134 124 137 27 329 161 151 164 59 44 30 20 13 359 355
304 291 284 288 293 305 339 74 58 41 79 111 114 106 109 318 21 59 73 109 97 98 81 65 69 70 29 55 168 211 173 124 133 308 15 319 197 122 64 50 39 18 6 0 358
281 304 288 277 278 293 263 315 358 1 34 79 67 105 144 113 56 43 91 101 77 62 85 39 69 91 7 340 282 192 111 114 142 128 62 251 276 199 56 44 32 18 5 0 356
246 260 276 272 258 270 31 69 77 128 63 67 92 107 127 96 62 35 70 65 35 84 45 27 102 155 309 313 39 30 93 38 284 145 129 302 287 266 58 46 33 21 6 3 358
234 252 249 240 232 233 158 131 136 128 121 106 143 110 103 105 61 17 74 74 72 48 27 112 155 155 236 43 72 27 113 99 236 315 253 293 315 125 86 39 26 20 7 5 3
229 227 212 212 189 190 136 158 153 197 71 230 101 29 101 136 48 55 85 85 52 121 84 85 281 184 89 83 11 195 26 34 298 49 169 100 265 74 347 23 21 14 11 3 4
225 221 204 196 168 159 149 151 148 10 355 52 107 124 110 93 132 37 75 76 112 91 108 209 151 167 120 131 19 205 35 312 284 332 55 273 79 261 9 357 1 6 7 5 7
216 209 198 186 151 126 124 135 101 44 256 162 71 143 114 95 57 91 75 82 117 74 34 118 85 70 99 116 77 100 345 291 323 104 34 220 127 295 355 289 340 5 10 6 12
209 198 194 186 161 128 111 93 45 147 332 258 156 154 166 116 56 180 122 108 145 96 36 9 85 149 157 125 338 104 81 350 354 6 222 176 48 244 98 58 52 14 8 10 16
200 198 190 187 170 159 192 56 184 230 186 224 146 147 154 141 356 47 113 41 257 191 120 152 279 178 188 215 165 181 146 158 212 217 256 330 236 193 130 73 41 24 23 21 21
192 186 189 184 173 165 166 124 201 201 149 150 74 122 148 130 125 77 201 225 208 188 146 132 62 94 61 355 127 179 165 151 106 11 40 216 77 157 85 45 27 22 29 27 23
186 179 183 185 169 167 116 247 183 145 132 119 158 141 163 183 123 121 196 255 186 140 7 172 91 10 203 343 282 198 148 80 9 114 274 280 212 197 27 5 13 16 30 29 30
180 149 180 180 162 165 201 223 181 171 156 158 176 140 155 170 150 191 212 292 139 152 65 177 108 203 80 204 180 164 184 166 136 168 186 263 254 174 154 135 83 30 42 39 40
158 140 166 165 120 195 185 193 159 160 163 144 108 99 160 172 139 243 213 172 164 158 173 195 118 162 209 159 177 240 207 162 140 211 220 128 272 150 139 132 108 69 56 51 51
145 115 167 175 172 216 261 339 171 143 197 162 169 191 61 179 124 184 132 359 167 149 162 178 213 72 344 356 347 227 204 199 117 80 206 147 248 187 135 119 113 99 75 65 63
142 135 145 192 225 149 140 205 185 200 170 170 151 133 111 205 75 148 130 342 30 72 94 99 166 193 195 135 126 207 201 187 147 157 196 222 164 181 172 151 135 121 103 84 75
157 180 169 175 213 178 176 169 155 181 225 185 346 200 160 161 77 187 139 121 308 191 58 102 180 246 138 57 8 236 203 193 204 195 185 238 185 181 182 167 157 146 137 112 94
148 147 166 170 158 177 184 195 180 164 161 211 189 182 179 156 169 187 147 182 197 170 160 82 234 92 290 316 300 270 250 214 220 233 262 221 251 175 166 157 149 156 156 135 113
177 162 156 157 144 175 197 178 186 152 209 201 170 124 156 204 173 235 138 168 172 157 165 148 136 112 264 351 352 296 223 207 201 203 213 212 199 154 159 167 163 165 171 155 140